sat.trackr.live / text

‹ back to catalog

HULIANWANG DIGUI-95

NORAD 66003 · 2025-231J

PAYLOAD ACTIVE UNKNOWN

§ Identity

Operator
Country
PRC
Launch date
2025-10-16
Launch site
WSC
Launch vehicle
Mass (kg)
RCS (m²)

External: N2YO · Heavens-Above · Gunter

§ Orbital elements

Epoch: 2026-09-20T08:36:51.163200Z

Period
108.33 min
Inclination
50.0026°
Eccentricity
0.0000396
Mean motion
13.29327646 rev/d
Perigee alt
1,149.0 km
Apogee alt
1,149.6 km
Semi-major
7,527.4 km
B*
3.7743e-5
RAAN
194.0538°
Arg perigee
55.1876°
Mean anomaly
304.9033°
Rev number
4,555

§ Raw data

HULIANWANG DIGUI-951 66003U 25231J   26263.35892550 -.00000107  00000+0  37743-4 0  99902 66003  50.0026 194.0538 0000396  55.1876 304.9033 13.29327646 45554

JSON: /api/v1/satellites/66003 · /tle

For live sub-satellite position, see the globe view (requires WebGL).

§ Visibility from observer

Set your observer location to see the next 7 days of passes ≥ 10°. The values pass through the URL so the page stays shareable.

No JS? Fill the form by hand. The geolocation button needs JavaScript.